Regional Weather Roundup
Issued by NWS

Home | Current Version | Previous Version | Text Only | Print | Product List | Glossary On
Versions: 1 2 3 4 5 6 7 8 9 10 11 12 13 14 15 16 17 18 19 20 21 22 23 24 25 26 27 28
000
ASUS44 KJAN 191010
RWRMS

MISSISSIPPI HOURLY WEATHER ROUNDUP
NATIONAL WEATHER SERVICE JACKSON MS
500 AM CDT THU APR 19 2018

NOTE: "FAIR: INDICATES FEW OR NO CLOUDS BELOW 12,000 FEET WITH NO
SIGNIFICANT WEATHER AND/OR OBSTRUCTIONS TO VISIBILITY.

MSZ001>002-007>008-010>013-018>021-025>028-034>036-191100-
NORTHWEST MISSISSIPPI

CITY           SKY/WX    TMP DP  RH WIND       PRES   REMARKS
BATESVILLE       N/A    N/A N/A N/A MISG        N/A
CLARKSDALE     CLEAR     48  32  53 N18G25    30.19R
CLEVELAND      FAIR      50  33  52 N17G24    30.18R
GREENWOOD      FAIR      54  36  50 N14G26    30.15R
GREENVILLE     FAIR      52  37  56 N13       30.16R
OXFORD         FAIR      48  30  49 NW16G22   30.16R
TUNICA           N/A     45  32  61 N12G17    30.20R
WINONA         FAIR      54  38  56 N8        30.12R
$$

MSZ003>006-009-014>017-022>024-029>033-037>039-191100-
NORTHEAST MISSISSIPPI

CITY           SKY/WX    TMP DP  RH WIND       PRES   REMARKS
ABERDEEN         N/A     54  48  82 N13       30.09R
COLUMBUS AFB   FAIR      57  43  60 NW9       30.06R
CORINTH        FAIR      48  34  57 NW10      30.11R
GOLDN TRIANGLE FAIR      57  42  57 NW9       30.08R
STARKVILLE     FAIR      55  43  62 NW6       30.09R
TUPELO         FAIR      52  35  52 NW15G23   30.11R
$$

MSZ040-058-191100-
CENTRAL MISSISSIPPI

CITY           SKY/WX    TMP DP  RH WIND       PRES   REMARKS
JACKSON INTL   FAIR      59  44  57 N13       30.08R
JACKSON HAWKNS FAIR      59  44  57 NW6       30.10R
MADISON        FAIR      57  43  58 N5        30.09R
MERIDIAN KEY   FAIR      61  54  77 NW6       30.05R
MERIDIAN NAS   FAIR      60  54  80 NW7       30.05R
RAYMOND        FAIR      59  43  55 VRB7      30.10R
VICKSBURG VKS  SUNNY     57  45  62 N7        30.12R
$$

MSZ059>079-191100-
SOUTH MISSISSIPPI

CITY           SKY/WX    TMP DP  RH WIND       PRES   REMARKS
COLUMBIA       FAIR      61  61 100 NW3       30.11R
HATTIESBURG    FAIR      65  63  93 W5        30.06R
LAUREL         FAIR      62  60  91 N6        30.06R
MCCOMB         FAIR      64  54  69 N10       30.08R
NATCHEZ        FAIR      60  42  51 N9        30.12R
PINE BELT      FAIR      61  60  97 NW3       30.06R
$$

MSZ080>082-191100-
COASTAL MISSISSIPPI

CITY           SKY/WX    TMP DP  RH WIND       PRES   REMARKS
BILOXI         MOCLDY    67  63  87 W3        30.05R
PASCAGOULA     FAIR      65  62  90 SW3       30.05S
GULFPORT       MOCLDY    66  63  90 W7        30.05R
$$

LAZ007>009-015>016-023>026-191100-
NORTHEAST LOUISIANA

CITY           SKY/WX    TMP DP  RH WIND       PRES   REMARKS
BASTROP        FAIR      55  38  54 N6        30.17R
TALLULAH/VBURG FAIR      59  46  62 NW7       30.12R
VIDALIA        FAIR      61  45  55 NW7       30.11R
$$




USA.gov is the U.S. government's official web portal to all federal, state and local government web resources and services.